Tucson, AZ

11:45 PM MST on June 24, 2017 (GMT -0700)
Tucson International

Weather History for KTUS - July, 2012

Change the Weather History Date:

Sunday, July 29, 2012

  Actual Average Record
Temperature  
Mean Temperature 83 °F 86 °F  
Max Temperature 94 °F 98 °F 110 °F (1995)
Min Temperature 71 °F 74 °F 62 °F (1913)
Degree Days  
Heating Degree Days 0 0  
Month to date heating degree days 0 0  
Since 1 June heating degree days 0 0  
Since 1 July heating degree days 0 0  
Cooling Degree Days 18 21  
Month to date cooling degree days 611 644  
Year to date cooling degree days 1980 1740  
Since 1 June cooling degree days 1303 1238  
Growing Degree Days 32 (Base 50)    
Moisture  
Dew Point 67 °F    
Average Humidity 65    
Maximum Humidity 93    
Minimum Humidity 36    
Precipitation  
Precipitation T in 0.09 in 3.93 in (1958)
Month to date precipitation 4.13 2.05  
Year to date precipitation 5.15 5.32  
Snow  
Snow 0.00 in - - ()
Month to date snowfall 0.0  
Snow Depth 0.00 in    
Sea Level Pressure  
Sea Level Pressure 29.92 in    
Wind  
Wind Speed 8 mph (SE)    
Max Wind Speed 22 mph    
Max Gust Speed 26 mph    
Visibility 10 miles    
Events Rain , Thunderstorm    
T = Trace of Precipitation, MM = Missing Value Source: NWS Daily Summary

Daily Weather History Graph

Daily Weather History Graph

Search for Another Location

Airport or City:

Trip Planner

Search our weather history database for the weather conditions in past years. The results will help you decide how hot, cold, wet, or windy it might be!

Date:

Astronomy

Jul. 29, 2012 Rise Set
Actual Time 5:37 AM MST 7:22 PM MST
Civil Twilight 5:10 AM MST 7:49 PM MST
Nautical Twilight 4:38 AM MST 8:21 PM MST
Astronomical Twilight 4:03 AM MST 8:55 PM MST
Moon 4:29 PM MST (7/29) 1:58 AM MST (7/29)
Length of Visible Light 14h 39m
Length of Day
13h 45m
Waxing Gibbous, 86% of the Moon is Illuminated
Jul 29
Waxing Gibbous
Aug 1
Full
Aug 9
Last Quarter
Aug 17
New
Aug 24
First Quarter

Hourly Weather History & Observations

Time (MST) Temp. Heat Index Dew Point Humidity Pressure Visibility Wind Dir Wind Speed Gust Speed Precip Events Conditions
12:53 AM 73.9 °F - 69.1 °F 85% 29.91 in 10.0 mi SE 8.1 mph - N/A   Clear
1:53 AM 73.0 °F - 69.1 °F 87% 29.90 in 10.0 mi SSE 5.8 mph - N/A   Clear
2:53 AM 73.0 °F - 69.1 °F 87% 29.88 in 10.0 mi SSE 3.5 mph - N/A   Partly Cloudy
3:53 AM 72.0 °F - 69.1 °F 91% 29.90 in 10.0 mi SE 4.6 mph - N/A   Clear
4:53 AM 72.0 °F - 68.0 °F 87% 29.92 in 10.0 mi SE 10.4 mph - N/A   Clear
5:53 AM 72.0 °F - 68.0 °F 87% 29.92 in 10.0 mi SE 6.9 mph - N/A   Clear
6:53 AM 73.9 °F - 68.0 °F 82% 29.94 in 10.0 mi ESE 5.8 mph - N/A   Clear
7:53 AM 77.0 °F - 68.0 °F 74% 29.95 in 10.0 mi SE 3.5 mph - N/A   Clear
8:53 AM 82.0 °F 84.5 °F 66.9 °F 60% 29.94 in 10.0 mi Variable 3.5 mph - N/A   Clear
9:53 AM 87.1 °F 89.2 °F 66.0 °F 49% 29.93 in 10.0 mi SE 13.8 mph - N/A   Clear
10:53 AM 90.0 °F 91.3 °F 64.0 °F 42% 29.91 in 10.0 mi SE 10.4 mph - N/A   Partly Cloudy
11:53 AM 91.0 °F 91.9 °F 63.0 °F 39% 29.88 in 10.0 mi Variable 5.8 mph - N/A   Scattered Clouds
12:53 PM 89.1 °F 91.3 °F 66.0 °F 46% 29.86 in 10.0 mi South 17.3 mph - N/A   Scattered Clouds
1:53 PM 93.0 °F 94.2 °F 63.0 °F 37% 29.83 in 10.0 mi South 15.0 mph - N/A   Scattered Clouds
2:08 PM 91.4 °F 93.2 °F 64.4 °F 41% 29.98 in 10.0 mi South 19.6 mph 25.3 mph N/A Thunderstorm Mostly Cloudy
2:53 PM 87.1 °F 89.2 °F 66.0 °F 49% 29.85 in 10.0 mi South 15.0 mph - 0.00 in Rain , Thunderstorm Light Rain
3:53 PM 82.0 °F 84.5 °F 66.9 °F 60% 29.90 in 10.0 mi East 12.7 mph 17.3 mph 0.00 in   Overcast
4:03 PM 80.6 °F 83.2 °F 68.0 °F 65% 30.03 in 10.0 mi ENE 10.4 mph - N/A Thunderstorm Overcast
4:18 PM 77.0 °F - 68.0 °F 74% 30.04 in 10.0 mi North 10.4 mph - N/A   Mostly Cloudy
4:53 PM 77.0 °F - 68.0 °F 74% 29.92 in 10.0 mi North 8.1 mph - N/A   Scattered Clouds
5:53 PM 77.0 °F - 68.0 °F 74% 29.90 in 10.0 mi NE 5.8 mph - N/A   Clear
6:53 PM 79.0 °F - 66.9 °F 66% 29.91 in 10.0 mi SSE 3.5 mph - N/A   Clear
7:53 PM 79.0 °F - 66.0 °F 64% 29.92 in 10.0 mi Variable 6.9 mph - N/A   Clear
8:53 PM 78.1 °F - 66.0 °F 66% 29.94 in 10.0 mi South 8.1 mph - N/A   Clear
9:53 PM 77.0 °F - 66.9 °F 71% 29.94 in 10.0 mi SSW 4.6 mph - N/A   Clear
10:53 PM 77.0 °F - 66.0 °F 69% 29.94 in 10.0 mi SSE 4.6 mph - N/A   Scattered Clouds
11:53 PM 77.0 °F - 66.0 °F 69% 29.93 in 10.0 mi ESE 4.6 mph - N/A   Partly Cloudy